Find Starlink 37416

NORAD ID: 100310 Int'l Des: 2026-184 Owner: SPXS Country: US Constellation: starlink operational

現在のビュー

3D地球を読み込み中...

About Starlink 37416

Starlink 37416 (NORAD 100310) is a starlink constellation satellite launched Aug 12, 2026 by SPXS of US. with a mass of 575.00 kg.

次回通過

Passes for default location (London). Set your location on the main map for personalized predictions.

高度履歴

Loading altitude history...

軌道要素

1 A0310U 26184K 26254.60188647 -.01018156 00000-0 -30258-1 0 9997
2 A0310 97.2832 119.7993 0002448 95.4862 264.6663 15.37729260 5930
Epoch: Sep 11, 2026 • Age: 9 hours

現在のステータス

高度 484.6 km
遠地点 / 近地点 N/A
速度 7.62 km/s
衛星直下点 -77.62°S, 76.94°W
打ち上げ日 Aug 12, 2026
運用期間 30 days
タイプ internet

技術仕様

分類 Payload
質量 575.00 kg
乾燥質量 530.00 kg
総質量 575.00 kg
長さ 0.30 m
直径 4.10 m
スパン 29.00 m
形状 Box + pan
製造者 SPXS
バスタイプ Starlink V2MO
フェーズステータス In Orbit
所有者/国 SPXS/US

Most Searched